Location: Newark
(51.3318°N, 0.0053°E)
Time: 16:04:34
(UTC+00:00)

DIWATA 2B (PO-101) - Pass Details

Date: 03 July 2022
Orbit: 583 x 599 km, 98.0° (Epoch: 07 August)

Event Time Altitude Azimuth Distance (km) Brightness Sun altitude
Exits shadow 01:56:13 13° 176° (S) 1,738 ? -11.7°
Maximum altitude 01:59:54 66° 257° (WSW) 659 ? -11.5°
Drops below altitude 10° 02:04:08 10° 341° (NNW) 1,952 ? -11.2°
Sets 02:06:20 0° 344° (NNW) 2,859 ? -11.0°
